Location: ????????
(56.0167°N, 38.0333°E)
Time: 13:22:52
(UTC+00:00)

Cosmos 1697 Rocket - Pass Details

Date: 19 May 2025
Orbit: 830 x 844 km, 71.0° (Epoch: 20 June)

Event Time Altitude Azimuth Distance (km) Brightness Sun altitude
Rises 19:34:46 0° 321° (NW) 3,408 7.7 -10.6°
Reaches altitude 10° 19:37:33 10° 310° (NW) 2,471 6.3 -10.7°
Maximum altitude 19:42:10 27° 255° (WSW) 1,589 4.2 -11.0°
Drops below altitude 10° 19:46:47 10° 200° (SSW) 2,461 4.7 -11.3°
Enters shadow 19:47:35 - 196° (SSW) 2,716 4.9 -11.3°
